Weather History for KCKB - January, 2013

Change the Weather History Date:

Saturday, January 12, 2013

  Actual Average Record
Temperature  
Mean Temperature 58 °F -  
Max Temperature 66 °F 36 °F 68 °F (2005)
Min Temperature 51 °F 16 °F -10 °F (1981)
Degree Days  
Heating Degree Days 6    
Growing Degree Days 8 (Base 50)    
Moisture  
Dew Point 53 °F    
Average Humidity 80    
Maximum Humidity 97    
Minimum Humidity 65    
Precipitation  
Precipitation 0.00 in - - ()
Sea Level Pressure  
Sea Level Pressure 30.04 in    
Wind  
Wind Speed 4 mph (SSW)    
Max Wind Speed 14 mph    
Max Gust Speed -    
Visibility 10 miles    
Events      
Averages and records for this station are not official NWS values.
T = Trace of Precipitation, MM = Missing Value Source: NWS Daily Summary

Daily Weather History Graph

Daily Weather History Graph

Search for Another Location

Airport or City:

Trip Planner

Search our weather history database for the weather conditions in past years. The results will help you decide how hot, cold, wet, or windy it might be!

Date:

Astronomy

Jan. 12, 2013 Rise Set
Actual Time 7:39 AM EST 5:19 PM EST
Civil Twilight 7:10 AM EST 5:48 PM EST
Nautical Twilight 6:37 AM EST 6:21 PM EST
Astronomical Twilight 6:04 AM EST 6:54 PM EST
Moon 7:58 AM EST (1/12) 6:45 PM EST (1/12)
Length of Visible Light 10h 38m
Length of Day
9h 39m
New Moon, 1% of the Moon is Illuminated
Jan 12
New Moon
Jan 18
First Quarter
Jan 26
Full
Feb 3
Last Quarter
Feb 10
New

Hourly Weather History & Observations

Time (EST) Temp. Dew Point Humidity Pressure Visibility Wind Dir Wind Speed Gust Speed Precip Events Conditions
12:07 AM 51.8 °F 48.2 °F 88% 30.04 in 3.0 mi South 3.5 mph - N/A   Clear
12:53 AM 54.0 °F 52.0 °F 93% 30.02 in 10.0 mi South 3.5 mph - N/A   Mostly Cloudy
1:53 AM 54.0 °F 53.1 °F 97% 30.02 in 10.0 mi Calm Calm - N/A   Mostly Cloudy
3:53 AM 55.0 °F 51.1 °F 86% 30.04 in 10.0 mi South 4.6 mph - N/A   Partly Cloudy
4:53 AM 55.9 °F 52.0 °F 87% 30.04 in 10.0 mi South 3.5 mph - N/A   Mostly Cloudy
5:53 AM 55.9 °F 53.1 °F 90% 30.05 in 10.0 mi South 3.5 mph - N/A   Mostly Cloudy
6:53 AM 54.0 °F 52.0 °F 93% 30.08 in 10.0 mi Calm Calm - N/A   Mostly Cloudy
7:53 AM 54.0 °F 51.1 °F 90% 30.08 in 10.0 mi South 3.5 mph - N/A   Partly Cloudy
8:53 AM 53.1 °F 51.1 °F 93% 30.09 in 10.0 mi South 4.6 mph - N/A   Clear
9:53 AM 61.0 °F 55.0 °F 81% 30.09 in 10.0 mi South 4.6 mph - N/A   Clear
10:53 AM 64.0 °F 57.0 °F 78% 30.10 in 10.0 mi SW 5.8 mph - N/A   Partly Cloudy
11:53 AM 64.0 °F 57.0 °F 78% 30.07 in 10.0 mi SW 9.2 mph - N/A   Partly Cloudy
12:53 PM 64.9 °F 55.9 °F 73% 30.05 in 10.0 mi WSW 10.4 mph - N/A   Scattered Clouds
1:44 PM 64.4 °F 55.4 °F 73% 30.06 in 10.0 mi WSW 12.7 mph - N/A   Scattered Clouds
1:53 PM 64.9 °F 55.9 °F 73% 30.05 in 10.0 mi WSW 13.8 mph - N/A   Scattered Clouds
2:53 PM 66.0 °F 55.0 °F 68% 30.06 in 10.0 mi WSW 10.4 mph - N/A   Partly Cloudy
3:53 PM 64.9 °F 55.0 °F 70% 30.04 in 10.0 mi SSW 4.6 mph - N/A   Clear
4:53 PM 62.1 °F 54.0 °F 75% 30.05 in 10.0 mi South 3.5 mph - N/A   Clear
5:53 PM 63.0 °F 54.0 °F 72% 30.03 in 10.0 mi Calm Calm - N/A   Clear
6:53 PM 61.0 °F 54.0 °F 78% 30.02 in 10.0 mi Calm Calm - N/A   Clear
8:53 PM 61.0 °F 53.1 °F 75% 29.99 in 10.0 mi Calm Calm - N/A   Overcast
9:53 PM 62.1 °F 53.1 °F 72% 29.97 in 10.0 mi Variable 3.5 mph - N/A   Overcast
10:53 PM 64.0 °F 52.0 °F 65% 29.96 in 10.0 mi ESE 6.9 mph - N/A   Overcast